Regional Weather Roundup
Issued by NWS

Home | Current Version | Previous Version | Graphics & Text | Print | Product List | Glossary On
Versions: 1 2 3 4 5 6 7 8 9 10 11 12 13 14 15 16 17 18 19 20 21 22 23 24 25 26 27 28 29 30 31 32 33 34 35 36 37 38 39 40 41 42 43 44 45 46 47 48 49 50
789
ASUS43 KLMK 302210
RWRKY
KENTUCKY REGIONAL WEATHER ROUNDUP
NATIONAL WEATHER SERVICE LOUISVILLE KY
600 PM EDT MON MAY 30 2016

NOTE "FAIR" INDICATES FEW OR NO CLOUDS BELOW 12,000 FEET
WITH NO SIGNIFICANT WEATHER AND/OR OBSTRUCTIONS TO VISIBILITY.

KYZ001>023-026-027-061>063-070>075-302300-
WESTERN AND SOUTH CENTRAL KENTUCKY

CITY           SKY/WX    TMP DP  RH WIND       PRES   REMARKS
PADUCAH        MOSUNNY   87  60  40 E6        29.97F
HENDERSON      SUNNY     86  57  37 NE5       29.97F
OWENSBORO      SUNNY     87  58  37 CALM      29.98F
HOPKINSVILLE   NOT AVBL
BOWLING GREEN  MOSUNNY   87  56  34 VRB3      29.98F
GLASGOW        SUNNY     84  56  38 N3        29.98F
$$

KYZ024-025-028>034-038-045-046-053-302300-
NORTH CENTRAL KENTUCKY

CITY           SKY/WX    TMP DP  RH WIND       PRES   REMARKS
LOUISVILLE/SDF MOSUNNY   87  54  32 N5        29.98F
LOUISVILLE/LOU SUNNY     87  56  34 N8        29.99F
FORT KNOX      MOSUNNY   84  59  42 N6        29.97F
$$

KYZ035>037-039>044-047>052-055>060-089>105-302300-
NORTHEAST KENTUCKY

CITY           SKY/WX    TMP DP  RH WIND       PRES   REMARKS
LEXINGTON      SUNNY     85  60  42 N8        30.00F
COVINGTON      SUNNY     86  54  33 NW8       29.99F
FRANKFORT      SUNNY     87  56  34 VRB5      29.99F
$$

KYZ054-064>069-076>088-106>120-302300-
SOUTHEAST KENTUCKY

CITY           SKY/WX    TMP DP  RH WIND       PRES   REMARKS
JACKSON        MOSUNNY   82  61  48 CALM      30.01F
LONDON         MOSUNNY   84  60  44 N7        30.00F
SOMERSET       MOSUNNY   82  55  39 NE10      30.00F
MIDDLESBORO    MOSUNNY   82  65  57 NW5       29.99F
MONTICELLO     CLEAR     84  60  44 N17       30.01F
$$





USA.gov is the U.S. government's official web portal to all federal, state and local government web resources and services.